FW7213 Weather Reports


Display with metric or nautical units.
time (UTC)temp
F
wind
direction
speed
MPH
gust
MPH
rain 1hr
in
rain 24hr
in
rain mn
in
humidity
%
barometer
mb
20210922115555 70 344 1.0 3.0 0.00 0.01 0.00 97 1015.2
20210922115105 70 328 1.0 3.0 0.00 0.01 0.00 97 1015.2
20210922114627 70 338 0.0 2.0 0.00 0.01 0.00 97 1015.1
20210922114105 69 335 1.0 3.0 0.00 0.01 0.00 97 1015.0
20210922113557 69 323 1.0 3.0 0.00 0.01 0.00 97 1015.0
20210922113159 69 296 0.0 1.0 0.00 0.01 0.00 97 1015.0
20210922112556 69 0 0.0 1.0 0.00 0.01 0.00 97 1014.8
20210922112102 69 0 0.0 1.0 0.00 0.01 0.00 97 1014.7
20210922111628 69 0 0.0 1.0 0.00 0.01 0.00 97 1014.6
20210922111125 69 0 0.0 1.0 0.00 0.01 0.00 97 1014.7
20210922110556 69 0 0.0 1.0 0.00 0.01 0.00 97 1014.6
20210922110212 69 0 0.0 1.0 0.00 0.01 0.00 97 1014.6
20210922105605 69 0 0.0 1.0 0.00 0.01 0.00 97 1014.6
20210922105055 69 0 0.0 1.0 0.00 0.01 0.00 97 1014.6
20210922104612 69 0 0.0 1.0 0.00 0.01 0.00 97 1014.6
20210922104100 69 250 0.0 1.0 0.00 0.01 0.00 97 1014.6
20210922103630 69 250 0.0 1.0 0.00 0.01 0.00 97 1014.6
20210922103126 69 0 0.0 1.0 0.00 0.01 0.00 97 1014.4
20210922102558 69 0 0.0 1.0 0.00 0.01 0.00 97 1014.5
20210922102057 69 0 0.0 0.0 0.00 0.01 0.00 97 1014.4
20210922101637 69 0 0.0 0.0 0.00 0.01 0.00 97 1014.3
20210922101056 69 0 0.0 0.0 0.00 0.01 0.00 97 1014.4
20210922100558 69 0 0.0 0.0 0.00 0.01 0.00 97 1014.5
20210922100216 69 0 0.0 0.0 0.00 0.01 0.00 97 1014.3
20210922095557 69 0 0.0 0.0 0.00 0.01 0.00 97 1014.4
20210922095103 69 0 0.0 0.0 0.00 0.01 0.00 97 1014.4
20210922094623 69 0 0.0 0.0 0.00 0.01 0.00 97 1014.5
20210922094057 70 0 0.0 0.0 0.00 0.01 0.00 97 1014.4
20210922093558 70 0 0.0 0.0 0.00 0.01 0.00 97 1014.4
20210922093108 70 0 0.0 0.0 0.00 0.01 0.00 97 1014.4
20210922092557 70 0 0.0 1.0 0.00 0.01 0.00 97 1014.4
20210922092055 70 0 0.0 1.0 0.00 0.01 0.00 97 1014.4
20210922091623 70 0 0.0 0.0 0.00 0.01 0.00 97 1014.5
20210922091055 70 0 0.0 0.0 0.00 0.01 0.00 97 1014.5
20210922090632 70 0 0.0 0.0 0.00 0.01 0.00 97 1014.2
20210922090132 70 0 0.0 0.0 0.00 0.01 0.00 97 1014.2
20210922085601 70 0 0.0 0.0 0.00 0.01 0.00 97 1014.1
20210922085057 70 0 0.0 0.0 0.00 0.01 0.00 96 1014.2
20210922084629 70 0 0.0 0.0 0.00 0.01 0.00 96 1014.1
20210922084057 70 0 0.0 0.0 0.00 0.01 0.00 96 1014.1
20210922083558 70 0 0.0 0.0 0.00 0.01 0.00 96 1014.2
20210922083216 70 0 0.0 1.0 0.00 0.01 0.00 96 1014.2
20210922082606 71 0 0.0 1.0 0.00 0.01 0.00 96 1014.3
20210922082058 71 0 0.0 1.0 0.00 0.01 0.00 96 1014.5
20210922081648 71 0 0.0 1.0 0.00 0.01 0.00 96 1014.7
20210922081057 71 250 0.0 1.0 0.00 0.01 0.00 96 1014.7
20210922080601 71 0 0.0 1.0 0.00 0.01 0.00 96 1014.6
20210922080256 71 266 0.0 1.0 0.00 0.01 0.00 95 1014.7
20210922075604 71 0 0.0 2.0 0.00 0.01 0.00 96 1014.9
20210922075104 71 272 0.0 3.0 0.00 0.01 0.00 96 1015.0
20210922074614 71 0 1.0 3.0 0.00 0.01 0.00 96 1015.0
20210922074120 71 234 0.0 1.0 0.00 0.01 0.00 96 1015.2
20210922073604 71 0 0.0 1.0 0.00 0.01 0.00 96 1015.1
20210922073107 71 0 0.0 1.0 0.00 0.01 0.00 96 1015.2
20210922072555 71 261 0.0 1.0 0.00 0.01 0.00 96 1015.3
20210922072056 71 277 0.0 1.0 0.00 0.01 0.00 96 1015.3
20210922071709 71 0 0.0 3.0 0.00 0.01 0.00 96 1015.2
20210922071100 71 0 0.0 3.0 0.00 0.01 0.00 96 1015.3
20210922070622 71 230 0.0 3.0 0.00 0.01 0.00 96 1015.4
20210922070135 71 314 0.0 2.0 0.00 0.01 0.00 96 1015.3
20210922065605 71 0 0.0 2.0 0.00 0.01 0.00 96 1015.2
20210922065055 71 0 1.0 2.0 0.00 0.01 0.00 96 1015.2
20210922064646 71 304 0.0 2.0 0.00 0.01 0.00 96 1015.3
20210922064055 72 0 0.0 2.0 0.00 0.01 0.00 96 1015.3
20210922063559 72 299 0.0 2.0 0.00 0.01 0.00 96 1015.3
20210922063146 72 0 0.0 1.0 0.00 0.01 0.00 96 1015.2
20210922062558 72 241 0.0 2.0 0.00 0.01 0.00 96 1015.3
20210922062057 72 0 0.0 2.0 0.00 0.01 0.00 96 1015.2
20210922061651 72 306 0.0 1.0 0.00 0.01 0.00 96 1015.4
20210922061057 72 300 0.0 1.0 0.00 0.01 0.00 96 1015.4
20210922060604 72 0 0.0 0.0 0.00 0.01 0.00 96 1015.3
20210922060211 72 319 0.0 1.0 0.00 0.01 0.00 96 1015.3
20210922055628 72 319 0.0 3.0 0.00 0.01 0.00 96 1015.4
20210922055058 72 310 1.0 3.0 0.00 0.01 0.00 96 1015.6
20210922054644 72 335 0.0 1.0 0.00 0.01 0.00 96 1015.7
20210922054056 73 268 0.0 1.0 0.00 0.01 0.00 96 1015.5
20210922053556 73 0 0.0 1.0 0.00 0.01 0.00 96 1015.5
20210922053205 73 0 0.0 0.0 0.00 0.01 0.00 96 1015.4
20210922052558 73 0 0.0 0.0 0.00 0.01 0.00 96 1015.4
20210922052102 73 0 0.0 0.0 0.00 0.01 0.00 96 1015.6
20210922051625 73 0 0.0 0.0 0.00 0.01 0.00 96 1015.7
20210922051104 73 0 0.0 0.0 0.00 0.01 0.00 96 1015.7
20210922050619 73 0 0.0 0.0 0.00 0.01 0.00 96 1015.8
20210922050111 73 0 0.0 1.0 0.00 0.01 0.00 96 1015.9
20210922045556 73 0 0.0 1.0 0.00 0.01 0.01 96 1015.9
20210922045055 73 142 0.0 1.0 0.00 0.01 0.01 96 1015.9
20210922044708 73 0 0.0 1.0 0.00 0.01 0.01 96 1016.1
20210922044055 73 0 0.0 1.0 0.00 0.01 0.01 95 1016.2
20210922043605 73 0 0.0 0.0 0.00 0.01 0.01 95 1016.1
20210922043129 73 0 0.0 0.0 0.00 0.01 0.01 95 1016.0
20210922042554 73 0 0.0 1.0 0.00 0.01 0.01 95 1016.0
20210922042059 73 0 0.0 1.0 0.00 0.01 0.01 94 1016.1
20210922041806 73 0 0.0 1.0 0.00 0.01 0.01 94 1016.2
20210922041056 73 0 0.0 0.0 0.00 0.01 0.01 94 1016.2
20210922040603 73 0 0.0 0.0 0.00 0.01 0.01 94 1016.2
20210922040201 74 0 0.0 0.0 0.00 0.01 0.01 94 1016.2
20210922035555 73 0 0.0 0.0 0.00 0.01 0.01 94 1016.3
20210922035117 74 0 0.0 0.0 0.00 0.01 0.01 94 1016.2
20210922034619 74 0 0.0 0.0 0.00 0.01 0.01 94 1016.3
20210922034056 74 0 0.0 0.0 0.00 0.01 0.01 94 1016.4
20210922033617 74 0 0.0 1.0 0.00 0.01 0.01 94 1016.2
20210922033253 74 168 0.0 1.0 0.00 0.01 0.01 95 1016.5
20210922032556 74 0 0.0 2.0 0.00 0.01 0.01 94 1016.5
20210922032058 74 0 0.0 2.0 0.00 0.01 0.01 94 1016.7
20210922031653 74 299 0.0 3.0 0.00 0.01 0.01 95 1017.0
20210922031119 74 0 0.0 3.0 0.00 0.01 0.01 95 1016.8
20210922030119 74 225 1.0 2.0 0.00 0.01 0.01 95 1016.7
20210922025557 74 146 0.0 4.0 0.00 0.01 0.01 96 1016.6
20210922025056 74 240 1.0 5.0 0.00 0.01 0.01 96 1016.7
20210922024625 73 153 2.0 5.0 0.00 0.01 0.01 96 1017.0
20210922024056 73 207 1.0 2.0 0.00 0.01 0.01 96 1016.8
20210922023610 73 310 0.0 0.0 0.00 0.01 0.01 95 1016.7
20210922023135 73 0 0.0 1.0 0.00 0.01 0.01 95 1016.7
20210922022555 73 0 0.0 1.0 0.00 0.01 0.01 95 1016.8
20210922022106 73 0 0.0 0.0 0.00 0.01 0.01 95 1016.8
20210922021726 74 0 0.0 1.0 0.00 0.01 0.01 95 1016.7
20210922021108 74 0 0.0 1.0 0.00 0.01 0.01 95 1016.7
20210922020620 74 0 0.0 1.0 0.00 0.01 0.01 95 1016.5
20210922020154 74 0 0.0 1.0 0.00 0.01 0.01 95 1016.5
20210922015608 74 0 0.0 1.0 0.00 0.01 0.01 95 1016.3
20210922015105 74 0 0.0 0.0 0.00 0.01 0.01 94 1016.2
20210922014617 74 0 0.0 0.0 0.00 0.01 0.01 94 1016.2
20210922014058 74 0 0.0 0.0 0.00 0.01 0.01 94 1016.2
20210922013556 74 0 0.0 0.0 0.00 0.01 0.01 93 1016.2
20210922013147 75 0 0.0 0.0 0.00 0.01 0.01 93 1016.3
20210922012607 75 0 0.0 0.0 0.00 0.01 0.01 92 1016.4
20210922012100 75 0 0.0 0.0 0.00 0.01 0.01 92 1016.4
20210922011737 75 0 0.0 0.0 0.00 0.01 0.01 91 1016.3
20210922011109 75 0 0.0 0.0 0.00 0.01 0.01 90 1016.4
20210922010559 75 0 0.0 0.0 0.00 0.01 0.01 90 1016.3
20210922010322 76 0 0.0 0.0 0.00 0.01 0.01 90 1016.2
20210922005557 76 0 0.0 0.0 0.00 0.01 0.01 90 1016.2
20210922005057 76 0 0.0 0.0 0.00 0.01 0.01 90 1016.0
20210922004812 76 0 0.0 0.0 0.00 0.01 0.01 89 1016.0
20210922004111 76 0 0.0 0.0 0.00 0.01 0.01 90 1016.0
20210922003611 76 0 0.0 0.0 0.00 0.01 0.01 90 1015.9
20210922003155 76 0 0.0 0.0 0.00 0.01 0.01 90 1016.0
20210922002556 76 0 0.0 0.0 0.00 0.01 0.01 89 1015.8
20210922002104 76 0 0.0 1.0 0.00 0.01 0.01 90 1015.9
20210922001648 76 0 0.0 1.0 0.00 0.01 0.01 89 1015.9
20210922001100 76 328 0.0 1.0 0.00 0.01 0.01 88 1015.7
20210922000555 77 0 0.0 1.0 0.00 0.01 0.01 90 1015.7
20210922000235 77 0 0.0 0.0 0.00 0.01 0.01 87 1015.7
20210921235608 77 0 0.0 0.0 0.00 0.01 0.01 87 1015.6
20210921235056 77 0 0.0 0.0 0.00 0.01 0.01 91 1015.6
20210921234647 77 0 0.0 0.0 0.00 0.01 0.01 87 1015.5
20210921234111 78 0 0.0 0.0 0.00 0.01 0.01 85 1015.5
20210921233556 78 0 0.0 0.0 0.00 0.01 0.01 84 1015.4
20210921233139 78 0 0.0 1.0 0.00 0.01 0.01 85 1015.4
20210921232555 78 0 0.0 1.0 0.00 0.01 0.01 84 1015.4
20210921232057 79 328 0.0 1.0 0.00 0.01 0.01 87 1015.4
20210921231736 79 0 0.0 1.0 0.00 0.01 0.01 87 1015.5
20210921231105 79 0 0.0 1.0 0.00 0.01 0.01 87 1015.5
20210921230606 79 0 0.0 0.0 0.00 0.01 0.01 85 1015.5
20210921230206 79 35 0.0 0.0 0.00 0.01 0.01 84 1015.4
20210921225555 79 0 0.0 1.0 0.00 0.01 0.01 89 1015.5
20210921225100 79 0 0.0 1.0 0.00 0.01 0.01 85 1015.5
20210921224829 80 0 0.0 1.0 0.00 0.01 0.01 86 1015.6
20210921224100 80 0 0.0 1.0 0.00 0.01 0.01 84 1015.4
20210921223605 80 0 0.0 1.0 0.00 0.01 0.01 78 1015.4
20210921223114 81 307 0.0 1.0 0.00 0.01 0.01 80 1015.4
20210921222636 81 0 0.0 0.0 0.00 0.01 0.01 80 1015.4
20210921222055 81 0 0.0 0.0 0.00 0.01 0.01 78 1015.4
20210921221648 81 0 0.0 1.0 0.00 0.01 0.01 83 1015.5
20210921221058 81 0 0.0 1.0 0.00 0.01 0.01 82 1015.3
20210921220608 81 0 0.0 1.0 0.00 0.01 0.01 80 1015.2
20210921220244 80 0 0.0 1.0 0.00 0.01 0.01 86 1015.2
20210921215558 79 0 0.0 2.0 0.00 0.01 0.01 82 1015.1
20210921215058 80 0 0.0 4.0 0.00 0.01 0.01 79 1015.2
20210921214721 80 345 2.0 4.0 0.00 0.01 0.01 77 1015.2
20210921214056 81 278 1.0 6.0 0.00 0.01 0.01 80 1015.4
20210921213557 82 16 2.0 7.0 0.00 0.01 0.01 76 1015.5
20210921213131 84 292 1.0 7.0 0.00 0.01 0.01 77 1015.5
20210921212555 86 311 1.0 3.0 0.00 0.01 0.01 71 1015.3
20210921212100 88 276 0.0 3.0 0.00 0.01 0.01 67 1015.2
20210921211658 89 0 1.0 3.0 0.00 0.01 0.01 64 1015.2
20210921211106 89 195 0.0 3.0 0.00 0.01 0.01 64 1015.1
20210921210557 88 198 1.0 3.0 0.00 0.01 0.01 65 1015.2
20210921210219 87 192 0.0 5.0 0.00 0.01 0.01 71 1015.1
20210921205605 87 137 0.0 5.0 0.00 0.01 0.01 69 1015.2
20210921205103 87 224 1.0 4.0 0.00 0.01 0.01 68 1015.2
20210921204719 87 160 2.0 6.0 0.00 0.01 0.01 69 1015.2
20210921204118 87 167 1.0 6.0 0.00 0.01 0.01 69 1015.3
20210921203651 87 253 1.0 5.0 0.00 0.01 0.01 71 1015.3
20210921203206 86 156 1.0 4.0 0.00 0.01 0.01 70 1015.4
20210921202555 86 143 2.0 4.0 0.00 0.01 0.01 72 1015.5
20210921202114 86 146 2.0 4.0 0.00 0.01 0.01 75 1015.5
20210921201607 86 162 1.0 6.0 0.00 0.01 0.01 75 1015.7
20210921201055 85 217 3.0 6.0 0.00 0.01 0.01 73 1015.7
20210921200600 85 257 1.0 4.0 0.00 0.01 0.01 74 1015.7
20210921200115 84 213 0.0 3.0 0.00 0.01 0.01 78 1015.8
20210921195558 84 251 1.0 3.0 0.00 0.01 0.01 77 1015.9
20210921195055 85 0 0.0 4.0 0.00 0.01 0.01 76 1015.9
20210921194643 85 285 1.0 4.0 0.00 0.01 0.01 75 1015.9
20210921194058 85 0 0.0 4.0 0.00 0.01 0.01 71 1016.1
20210921193604 85 0 0.0 4.0 0.00 0.01 0.01 73 1016.1
20210921193204 86 285 1.0 2.0 0.00 0.01 0.01 71 1016.0
20210921192556 87 288 0.0 1.0 0.00 0.01 0.01 68 1016.2
20210921192056 87 279 0.0 2.0 0.00 0.01 0.01 63 1016.1
20210921191612 87 0 0.0 2.0 0.00 0.01 0.01 66 1016.1
20210921191104 88 321 0.0 2.0 0.00 0.01 0.01 59 1016.2
20210921190603 88 307 0.0 3.0 0.00 0.01 0.01 62 1016.2
20210921190212 88 307 1.0 3.0 0.00 0.01 0.01 65 1016.2
20210921185558 89 321 0.0 3.0 0.00 0.23 0.01 62 1016.4
20210921185101 88 330 0.0 2.0 0.00 0.23 0.01 63 1016.4
20210921184642 87 0 1.0 2.0 0.00 0.23 0.01 62 1016.6
20210921184058 87 51 0.0 2.0 0.00 0.23 0.01 65 1016.7
20210921183602 87 229 1.0 2.0 0.00 0.23 0.01 62 1016.8
20210921183147 86 233 0.0 3.0 0.00 0.23 0.01 70 1016.9
20210921182600 86 0 1.0 3.0 0.00 0.23 0.01 71 1017.1
20210921182101 85 243 0.0 2.0 0.00 0.23 0.01 71 1017.3
20210921181643 85 257 0.0 2.0 0.00 0.23 0.01 71 1017.4
20210921181055 85 239 0.0 1.0 0.00 0.23 0.01 70 1017.5
20210921180608 84 0 0.0 2.0 0.00 0.23 0.01 69 1017.6
20210921180152 84 0 0.0 3.0 0.00 0.23 0.01 70 1017.7
20210921175559 84 229 0.0 3.0 0.00 0.23 0.01 69 1017.8
20210921175056 85 146 1.0 3.0 0.00 0.23 0.01 71 1017.9
20210921174638 84 160 0.0 2.0 0.00 0.23 0.01 70 1017.9
20210921174055 83 0 0.0 2.0 0.00 0.23 0.01 73 1018.1
20210921173609 84 301 0.0 2.0 0.00 0.23 0.01 75 1018.2
20210921173138 84 308 0.0 2.0 0.00 0.23 0.01 75 1018.2
20210921172610 85 237 0.0 1.0 0.00 0.23 0.01 73 1018.2
20210921172059 85 296 0.0 4.0 0.00 0.23 0.01 70 1018.4
20210921171633 85 0 2.0 5.0 0.00 0.23 0.01 70 1018.4
20210921171054 85 321 2.0 5.0 0.00 0.23 0.01 72 1018.4
20210921170558 84 249 0.0 4.0 0.00 0.23 0.01 70 1018.5
20210921170127 84 145 1.0 4.0 0.00 0.23 0.01 69 1018.5
20210921165604 84 231 1.0 4.0 0.00 0.23 0.01 72 1018.6
20210921165056 84 234 1.0 4.0 0.00 0.23 0.01 74 1018.5
20210921164627 84 0 1.0 4.0 0.00 0.23 0.01 76 1018.5
20210921164056 83 321 0.0 4.0 0.00 0.23 0.01 79 1018.5
20210921163557 83 328 1.0 4.0 0.00 0.23 0.01 76 1018.7
20210921163202 83 248 0.0 4.0 0.00 0.23 0.01 75 1018.7
20210921162604 82 356 1.0 4.0 0.00 0.23 0.01 78 1018.8
20210921162134 82 219 1.0 2.0 0.00 0.23 0.01 78 1018.8
20210921161628 81 224 1.0 4.0 0.00 0.23 0.01 80 1018.8
20210921161108 81 237 1.0 4.0 0.00 0.23 0.01 79 1018.9
20210921160605 81 217 1.0 3.0 0.00 0.23 0.01 83 1018.8
20210921160142 80 0 0.0 3.0 0.00 0.23 0.01 83 1018.8
20210921155614 81 271 2.0 3.0 0.00 0.24 0.01 81 1018.9
20210921155057 80 260 1.0 3.0 0.00 0.24 0.01 81 1018.9
20210921154716 80 233 0.0 3.0 0.00 0.24 0.01 84 1019.0
20210921154101 80 234 1.0 3.0 0.00 0.24 0.01 82 1019.0
20210921153615 79 15 0.0 1.0 0.00 0.24 0.01 88 1019.0
20210921153122 79 349 0.0 1.0 0.01 0.24 0.01 91 1019.0
20210921152600 79 338 0.0 3.0 0.01 0.24 0.01 92 1019.1
20210921152056 78 296 1.0 4.0 0.01 0.24 0.01 88 1019.0
20210921151610 78 282 0.0 4.0 0.01 0.24 0.01 94 1018.9
20210921151056 78 0 0.0 2.0 0.01 0.24 0.01 90 1018.9
20210921150605 78 316 0.0 2.0 0.01 0.24 0.01 90 1018.9
20210921150116 78 0 0.0 1.0 0.01 0.24 0.01 91 1018.9
20210921145559 77 306 0.0 1.0 0.01 0.24 0.01 92 1018.9
20210921145056 76 293 0.0 1.0 0.01 0.24 0.01 93 1018.9
20210921144739 76 0 0.0 1.0 0.01 0.24 0.01 95 1018.7
20210921144057 76 240 0.0 2.0 0.01 0.24 0.01 95 1018.8
20210921143602 76 300 0.0 2.0 0.01 0.24 0.01 96 1018.7
20210921143146 76 0 0.0 1.0 0.00 0.23 0.00 97 1018.6
20210921142554 75 295 0.0 1.0 0.00 0.23 0.00 97 1018.7
20210921142057 74 0 0.0 2.0 0.00 0.23 0.00 97 1018.7
20210921141809 74 0 0.0 2.0 0.00 0.23 0.00 97 1018.6
20210921141131 74 246 0.0 2.0 0.00 0.23 0.00 97 1018.6
20210921140600 74 283 1.0 2.0 0.00 0.23 0.00 97 1018.6
20210921140145 74 0 0.0 1.0 0.00 0.23 0.00 97 1018.6
20210921135600 74 0 0.0 1.0 0.00 0.23 0.00 97 1018.6
20210921135107 74 0 0.0 1.0 0.00 0.23 0.00 97 1018.6
20210921134642 74 0 0.0 1.0 0.00 0.23 0.00 97 1018.6
20210921134126 74 259 0.0 0.0 0.00 0.23 0.00 97 1018.6
20210921133556 73 0 0.0 1.0 0.00 0.23 0.00 97 1018.5
20210921133256 73 0 0.0 1.0 0.00 0.23 0.00 97 1018.5
20210921132602 73 0 0.0 1.0 0.00 0.23 0.00 97 1018.6
20210921132056 73 0 0.0 0.0 0.00 0.23 0.00 97 1018.5
20210921131648 73 0 0.0 0.0 0.00 0.23 0.00 97 1018.5
20210921131057 73 0 0.0 0.0 0.00 0.23 0.00 97 1018.3
20210921130602 72 0 0.0 1.0 0.00 0.23 0.00 97 1018.3
20210921130307 72 221 0.0 1.0 0.00 0.23 0.00 97 1018.4
20210921125556 72 221 0.0 1.0 0.00 0.23 0.00 97 1018.3
20210921125057 72 0 0.0 1.0 0.00 0.23 0.00 97 1018.2
20210921124635 72 0 0.0 0.0 0.00 0.23 0.00 97 1018.2
20210921124056 72 0 0.0 0.0 0.00 0.23 0.00 97 1018.4
20210921123556 72 0 0.0 0.0 0.00 0.23 0.00 97 1018.2
20210921123236 72 0 0.0 0.0 0.00 0.23 0.00 97 1018.2
20210921122559 71 0 0.0 0.0 0.00 0.23 0.00 97 1018.1
20210921122056 71 0 0.0 0.0 0.00 0.23 0.00 97 1018.0
20210921121643 71 0 0.0 2.0 0.00 0.23 0.00 97 1018.0
20210921121104 71 0 0.0 2.0 0.00 0.23 0.00 97 1018.0
20210921120603 71 0 0.0 1.0 0.00 0.23 0.00 97 1018.0
20210921120209 71 0 0.0 1.0 0.00 0.23 0.00 97 1017.8